Find STARLINK-37556

NORAD ID: 799501011 Int'l Des: 2026-143M Constellation: starlink operational

Aktuelle Ansicht

3D-Globus wird geladen...

About STARLINK-37556

STARLINK-37556 (NORAD 799501011) is a starlink constellation satellite launched Jun 15, 2026

Über STARLINK-37556

Beschreibung wird geladen...

Nächste Überflüge

Passes for default location (London). Set your location on the main map for personalized predictions.

Höhenverlauf

Loading altitude history...

Zweizeiliger Elementsatz

1 99999C 2026143M 26173.13937500 .00330590 00000-0 505630-4 0 1737
2 99999 97.2821 215.9965 0011103 274.3467 263.5020 16.04098394 15
Epoch: 22. Juni 2026 • Age: 5 hours